Theta_e
311 311 318 319 321 318 318 322 325 325 322 323 325 327 314 318 319 321 322 326 323 327 328 323 322 325 327 329 323 318 318 321 321 317 318 315 316 316 317 321 326 324 323 327 333
312 313 312 320 320 318 317 322 321 324 322 321 322 327 323 321 318 316 321 323 325 318 323 323 316 317 319 318 319 318 320 319 317 315 316 315 315 316 317 322 323 323 324 326 333
312 313 314 320 320 318 317 321 321 324 322 322 323 326 325 324 324 322 318 317 321 322 316 316 316 320 321 319 319 318 320 316 316 315 314 314 315 315 316 317 322 321 322 325 333
311 314 314 320 320 318 317 318 322 322 323 322 322 324 323 323 322 322 324 319 319 319 315 315 319 324 316 318 318 319 318 317 318 319 315 313 314 314 315 319 318 319 321 323 330
311 314 314 316 320 318 317 317 321 322 324 322 322 323 324 317 322 322 322 321 320 318 321 320 319 322 323 319 316 316 316 316 318 316 316 314 313 313 315 317 317 318 320 321 323
315 316 316 316 319 317 316 317 321 322 323 321 321 321 325 322 322 322 322 314 318 318 318 320 319 322 322 318 318 319 314 315 315 317 319 314 312 313 316 316 316 316 319 321 321
313 315 320 318 319 316 316 316 320 321 322 321 322 322 322 322 323 322 320 316 314 317 316 314 317 320 316 314 315 314 316 314 319 315 314 314 313 311 315 314 315 317 319 321 322
316 315 315 319 319 316 315 316 321 321 322 321 321 321 319 321 320 320 322 313 311 314 316 316 315 317 317 316 317 316 316 319 315 313 314 315 322 314 316 315 315 317 319 320 323
316 315 315 319 318 315 315 317 320 322 321 321 320 319 318 320 319 319 319 315 311 312 312 313 314 315 315 317 318 319 318 318 318 312 311 312 314 313 315 313 314 316 320 320 320
316 317 318 317 317 316 316 318 321 322 321 316 315 318 312 316 320 319 317 315 314 316 316 315 313 310 313 320 325 322 319 319 318 317 310 310 310 310 313 312 314 314 317 321 320
313 319 317 316 315 316 316 318 319 317 315 316 316 314 315 315 319 316 317 318 316 316 315 312 315 315 314 317 313 317 321 321 315 317 313 314 315 315 315 312 312 313 314 318 320
307 312 317 316 316 316 316 319 319 314 315 317 316 313 313 317 314 315 317 317 316 315 315 315 316 312 308 311 312 316 318 318 316 311 311 312 311 310 311 311 315 315 314 314 317
307 310 316 316 316 316 318 319 318 315 313 313 312 310 311 313 313 315 318 317 316 314 315 315 314 311 311 310 311 310 310 310 313 309 307 308 310 309 310 309 311 312 314 313 314
305 307 313 316 316 317 318 318 316 316 313 311 312 309 310 312 311 316 317 317 312 315 316 315 314 313 313 313 311 312 309 309 309 310 310 307 311 309 311 313 307 309 313 314 314
304 304 309 315 318 318 317 317 315 314 320 310 311 309 310 312 311 312 313 310 310 310 313 315 311 315 314 313 311 312 308 310 310 310 310 308 306 306 306 311 314 310 312 314 315
303 305 305 313 318 318 316 316 315 315 317 310 308 308 309 307 308 311 310 310 309 308 308 308 309 314 314 311 311 307 310 309 306 311 315 310 308 308 308 308 308 309 312 314 316
304 302 303 309 316 317 315 314 313 319 307 308 309 308 310 306 307 311 309 307 309 309 309 307 306 305 308 309 308 311 314 316 317 316 316 303 306 314 307 306 306 307 312 314 316
304 302 303 309 311 314 312 314 318 310 309 306 308 308 309 308 306 308 309 308 305 307 308 311 312 305 304 307 309 313 316 314 316 311 311 303 309 311 306 310 309 311 310 309 311
303 304 302 305 307 314 313 317 317 310 305 307 309 309 306 306 306 308 310 310 307 304 309 309 310 304 304 305 309 307 315 309 308 296 304 305 304 305 304 304 305 306 308 310 311
301 303 301 303 306 310 314 316 306 304 306 308 310 309 306 308 306 308 309 309 308 305 305 306 308 305 305 306 305 308 308 310 308 310 307 306 305 309 307 305 304 304 307 312 312
303 304 304 303 303 309 314 314 305 305 307 306 305 306 308 308 306 308 309 307 306 303 305 304 306 307 305 306 306 305 308 306 308 307 309 307 309 301 305 306 306 306 307 308 309
303 304 305 302 303 306 313 308 305 305 306 304 304 303 307 307 305 309 307 309 308 305 307 304 305 306 306 305 303 304 306 308 309 307 304 306 311 303 302 301 303 305 308 310 310
303 303 306 303 306 307 309 309 306 305 305 305 305 305 305 307 305 305 305 305 307 306 307 304 305 302 307 306 305 304 304 307 307 304 306 306 310 306 308 308 306 307 310 310 309
301 303 303 304 302 306 309 309 308 306 305 303 303 304 305 305 304 305 304 304 306 307 307 308 305 307 309 307 305 307 305 303 306 307 309 307 308 308 306 303 304 306 308 309 309
299 299 300 305 303 306 307 307 308 306 305 304 304 305 305 305 306 305 304 305 304 307 307 306 306 305 306 306 306 306 306 304 305 308 309 309 307 308 304 305 306 308 309 308 309
298 299 299 299 300 303 307 307 309 307 306 306 305 304 303 304 306 304 305 305 305 305 306 304 304 305 304 306 305 304 306 306 307 307 306 307 306 308 306 307 307 310 309 310 310
298 299 299 300 302 304 305 306 307 307 307 305 303 304 304 304 305 306 307 307 306 307 307 305 301 299 307 306 305 308 307 306 306 306 307 308 309 305 303 303 307 309 308 309 310
Wind_Speed
34 42 47 54 52 47 49 47 40 34 32 30 31 27 25 26 24 25 26 20 16 14 25 15 12 10 9 13 7 5 3 3 4 5 1 1 3 3 4 7 8 8 4 8 21
34 42 49 58 52 48 47 47 44 36 33 32 32 30 29 25 22 22 20 20 23 16 22 23 19 14 7 5 7 5 3 8 4 3 2 2 3 5 4 5 7 8 8 12 24
37 41 45 60 56 50 46 58 44 40 36 34 31 33 35 25 19 22 20 22 23 21 20 21 19 16 5 7 5 6 5 6 6 5 2 2 2 3 6 3 13 17 15 19 28
41 44 49 52 61 53 47 53 45 42 37 34 33 26 28 25 13 18 29 23 23 22 22 20 19 14 6 5 7 4 6 10 5 6 3 4 4 2 11 11 5 16 14 21 30
38 47 47 49 57 54 49 54 49 44 39 37 34 31 34 28 17 7 27 26 26 24 25 24 21 13 7 8 6 2 5 12 8 4 3 4 6 5 15 16 10 11 17 22 28
26 46 49 54 55 53 50 56 51 47 42 39 37 36 36 17 27 9 27 30 27 27 26 27 18 15 12 7 8 6 8 5 5 5 5 2 3 3 8 10 16 13 19 23 26
37 48 49 57 58 52 52 53 51 48 45 41 37 36 30 20 26 18 18 31 29 29 27 25 13 17 12 6 6 5 4 3 5 1 4 1 3 4 18 12 15 16 19 23 28
43 51 43 57 54 54 51 55 50 48 47 42 36 32 14 24 18 19 19 30 24 23 23 23 17 17 6 13 4 4 1 2 1 7 4 7 11 10 16 14 17 19 21 23 27
42 51 41 58 51 49 48 55 51 48 46 40 39 27 9 29 20 23 24 40 26 21 20 17 20 7 11 8 2 2 3 6 3 11 3 4 3 7 6 14 20 20 23 24 25
24 40 53 57 49 51 51 54 47 47 45 41 30 15 15 27 32 24 22 38 30 19 15 11 6 4 1 8 8 6 4 0 4 2 1 2 6 10 13 11 19 21 23 26 29
4 48 61 55 53 52 51 50 47 18 51 22 30 8 25 22 30 23 25 33 22 18 6 3 4 14 15 8 5 6 3 6 0 4 3 6 11 16 23 19 20 24 26 28 32
7 6 57 57 55 51 59 51 46 29 17 21 33 16 31 36 16 29 29 18 19 12 9 4 10 5 8 9 6 7 4 2 3 3 4 6 10 13 15 17 31 33 31 32 32
13 8 39 49 51 55 63 36 34 49 10 16 25 23 34 27 14 30 37 17 20 16 16 7 5 9 6 4 8 4 7 5 4 3 2 4 10 10 10 24 31 32 30 29 36
11 19 21 47 50 57 37 37 36 36 5 6 8 13 23 20 6 34 27 19 4 20 11 6 3 14 9 7 6 6 7 6 4 2 3 1 6 6 8 18 12 25 36 34 31
13 18 9 44 38 54 42 54 50 26 8 13 6 26 27 18 26 22 27 6 12 10 8 10 11 14 15 8 8 5 7 8 5 4 4 4 3 7 5 13 18 24 34 35 37
12 20 16 36 27 44 51 47 37 6 5 7 8 10 16 5 6 31 13 6 13 7 4 6 7 12 8 7 13 8 6 8 5 3 5 5 6 6 6 8 6 15 34 38 37
7 16 15 6 13 45 65 45 7 7 8 7 7 13 20 6 6 21 14 9 8 8 6 3 3 2 10 7 4 7 13 2 2 3 8 3 6 21 6 5 6 11 25 30 35
6 18 15 15 15 62 49 12 7 10 8 4 8 17 11 14 3 7 12 9 7 5 8 10 6 9 5 7 9 10 9 5 6 5 3 1 9 9 7 21 22 25 22 22 27
15 14 13 13 7 53 33 17 9 10 11 11 17 19 4 7 9 9 19 22 11 8 7 5 4 3 4 5 11 5 9 7 5 2 2 5 7 10 9 10 14 21 24 29 24
15 11 14 11 13 24 13 18 6 8 15 23 10 11 10 21 7 12 20 18 9 9 4 6 4 1 1 6 1 12 11 5 3 5 5 5 5 9 3 8 10 11 21 30 31
11 7 5 9 10 9 16 11 7 13 26 8 7 8 12 18 9 17 22 2 10 8 5 6 4 1 7 9 10 4 9 5 6 6 6 2 6 8 9 10 9 13 19 24 28
3 3 6 6 2 3 13 10 9 12 5 6 6 6 13 20 4 18 14 13 27 23 17 6 5 4 8 3 4 7 9 17 5 6 2 2 10 6 8 7 10 18 17 19 26
0 2 10 14 3 4 3 4 4 10 5 4 5 4 6 13 5 4 11 10 30 20 20 8 3 3 5 4 1 7 7 13 9 3 8 6 10 5 18 24 17 16 23 19 18
3 2 4 12 4 5 7 9 6 9 4 6 7 10 10 8 2 11 7 5 24 19 21 22 4 10 14 3 8 8 7 6 10 5 17 8 20 25 5 7 10 12 16 15 16
1 1 3 1 3 6 5 7 8 7 3 9 4 13 12 6 15 6 6 4 5 16 7 7 11 2 2 4 5 7 11 12 12 22 12 23 19 28 9 11 19 22 20 17 18
4 3 4 1 2 7 7 9 11 5 8 15 12 15 7 9 12 7 10 7 7 5 12 4 8 7 2 3 5 1 10 19 22 21 13 21 13 15 7 20 23 34 22 26 23
6 7 4 2 2 3 5 7 14 5 5 4 11 9 6 6 13 19 11 19 14 15 15 12 7 4 13 6 5 5 21 12 9 11 17 17 35 7 7 10 25 32 22 28 37
Wind_Direction
249 250 236 222 218 219 205 205 207 207 203 212 201 188 175 176 178 181 192 203 187 181 188 190 193 191 194 201 165 132 87 187 211 161 316 37 190 176 169 149 167 187 194 157 172
250 237 246 216 216 215 208 207 205 207 198 205 206 190 181 186 179 186 194 196 193 180 177 182 149 146 112 132 142 143 148 209 167 165 177 1 203 180 166 158 206 199 201 173 179
247 236 240 220 217 213 209 203 200 203 197 199 201 206 204 192 210 224 195 192 179 180 179 173 165 173 136 140 163 180 180 191 192 134 53 44 85 205 165 216 214 216 198 180 184
243 230 224 218 213 209 208 208 200 201 196 192 190 195 179 185 197 230 215 200 190 183 177 175 186 167 133 165 189 163 187 174 167 189 90 338 312 270 217 237 246 232 216 189 191
243 227 217 223 208 207 208 204 199 198 195 189 184 191 181 183 188 168 190 199 198 190 190 188 187 172 158 174 168 241 192 197 188 186 53 359 304 270 268 260 257 218 208 207 202
236 215 213 209 208 204 204 200 197 196 193 186 184 189 189 187 199 187 187 188 197 194 186 192 193 173 170 178 177 223 185 202 178 210 254 314 322 31 286 264 227 216 213 212 213
229 210 202 208 203 201 199 202 198 196 191 185 184 189 188 180 192 207 184 185 189 193 186 189 183 174 152 134 159 139 158 22 273 266 183 192 319 220 278 284 228 216 216 217 216
196 198 198 202 198 194 195 192 194 194 186 183 185 190 173 181 196 192 181 183 182 188 194 194 188 177 150 125 69 111 72 162 207 171 231 162 260 260 290 267 246 228 221 219 220
192 198 200 199 197 189 190 190 191 187 182 179 176 178 162 191 174 180 184 181 166 158 168 170 179 150 135 113 56 349 172 205 284 210 139 180 265 240 257 241 246 240 230 222 222
188 203 198 194 190 189 184 184 188 177 175 165 169 154 185 192 185 175 174 178 164 151 135 146 142 114 109 163 196 187 192 282 206 265 189 122 269 275 264 255 245 252 239 231 226
231 196 189 186 191 186 179 179 157 157 158 169 179 149 163 165 182 176 169 175 160 151 137 133 128 199 190 200 112 143 155 201 281 245 232 230 246 247 252 255 256 247 246 234 234
277 242 189 189 185 184 182 187 170 172 149 175 171 163 157 163 148 168 170 157 160 171 115 100 210 165 143 159 152 140 132 202 293 269 184 292 261 261 245 238 246 250 246 240 235
242 183 178 180 181 181 184 174 170 153 120 147 158 156 157 159 141 159 169 161 168 172 185 161 154 143 136 147 159 155 148 161 210 295 221 286 277 242 242 239 242 244 247 251 245
231 237 151 181 179 178 177 166 156 147 109 160 168 157 163 146 100 163 166 143 148 190 156 212 190 169 173 185 157 185 166 146 117 47 260 108 285 265 248 237 223 238 243 244 250
270 245 187 179 179 176 161 168 157 162 162 152 146 151 157 163 139 178 162 134 150 146 142 193 159 177 204 162 164 202 149 175 146 82 359 207 283 270 271 245 235 227 238 242 241
259 244 239 180 176 171 167 155 152 156 179 157 144 157 147 137 156 158 166 116 133 109 62 168 182 180 185 159 171 134 76 37 43 82 270 212 204 240 219 228 237 229 237 238 240
221 265 244 184 173 160 161 151 139 191 153 146 165 169 156 135 107 162 170 157 154 132 167 144 170 177 139 113 116 129 152 146 162 202 238 293 172 247 255 268 242 241 243 235 236
173 251 250 173 136 159 152 161 172 138 152 165 143 142 157 139 98 143 148 174 232 127 137 163 210 165 182 159 155 164 172 164 170 200 245 141 222 246 236 250 256 261 272 264 249
193 208 259 210 207 166 161 182 194 162 147 135 134 152 125 162 132 147 189 191 185 179 129 132 211 37 152 137 136 180 202 159 85 82 51 217 286 295 257 278 275 259 258 253 250
187 194 265 232 223 165 182 185 120 128 124 140 145 173 161 174 130 176 178 199 187 177 112 187 124 11 91 107 50 183 149 162 199 205 245 245 259 233 319 260 269 281 257 254 259
176 135 308 207 187 225 191 174 110 151 138 136 146 153 170 180 162 180 185 212 161 150 115 157 101 351 141 207 164 135 186 192 162 180 190 251 249 196 223 226 236 262 274 281 285
181 141 171 205 179 250 178 146 124 160 136 118 109 112 163 165 118 185 189 184 176 159 184 187 115 149 205 259 190 185 190 199 185 220 293 126 269 179 231 241 245 277 296 299 298
203 53 141 183 199 173 142 111 120 152 140 117 116 122 129 162 152 178 173 215 169 167 174 174 176 77 9 343 206 213 198 202 215 62 200 161 256 156 240 263 254 265 283 288 295
175 153 87 185 214 156 156 166 113 149 98 93 109 112 117 155 280 181 153 179 181 176 171 162 159 191 202 158 131 187 171 185 193 209 236 227 253 255 281 268 272 259 274 286 289
99 89 102 184 165 169 141 142 133 144 152 127 81 159 155 144 190 163 132 101 106 186 152 158 219 165 17 144 144 172 191 182 194 221 205 240 229 260 214 258 281 294 297 289 288
123 125 64 37 73 150 178 175 178 132 144 188 155 167 168 155 180 141 133 141 169 158 165 178 240 158 223 119 140 184 211 201 211 221 222 241 267 255 259 245 254 261 270 277 278
123 112 114 357 73 141 178 156 201 142 36 139 131 144 205 159 134 160 155 162 156 170 183 173 135 115 235 148 91 309 226 206 205 207 208 231 244 160 233 224 245 260 260 277 279